Погода в Каменном

Россия / Удмуртская Республика     56°02′09″N   52°01′20″E
темп.,
°C
ветер,
м/с
пор.,
м/с
влажн.,
%
обл.,
%
осадки,
мм/ч
давл.,
гПа
погр.,
м
12 апреля, пн
пн1201:00+3ссв3599100 0.5 103497
04:00+3ссв2391100 2.3 103658
07:00+2ссв2692100 0.6 1037121
10:00+4св3789100 0.7 1038200
13:00+10всв4671100 0.0 1038577
16:00+11всв467296 0.0 1039671
19:00+8всв3386100 0.0 103842
22:00+6всв3691100 0.0 103996
13 апреля, вт
вт1301:00+5вюв4109360 0.0 1039185
04:00+4вюв4894100 0.0 1039140
07:00+5вюв3892100 0.0 1038176
10:00+10юв4670100 0.0 1038326
13:00+14ююв346497 0.0 1036500
16:00+17ю346069 0.0 1035754
19:00+14ю227460 0.0 103321
22:00+11ю338371 0.0 103320
14 апреля, ср
ср1401:00+10ююз228666 0.0 103319
04:00+8ююз228670 0.0 103315
07:00+8ююз238136 0.0 103248
10:00+13ю345958 0.0 1031384
13:00+17ю455317 0.0 1030897
16:00+18ю45495 0.0 10281082
19:00+14ю33595 0.0 102732
22:00+11ююв33655 0.0 102641
15 апреля, чт
чт1501:00+9ю23645 0.0 102619
04:00+8ю22665 0.0 102513
07:00+8ю24685 0.0 102471
10:00+13ююз45495 0.0 1023444
13:00+16юз45470 0.0 10221037
16:00+17юз45420 0.0 10211365
19:00+14юз22560 0.0 102012
22:00+11з11640 0.0 101910
16 апреля, пт
пт1601:00+10зюз11684 0.0 101810
04:00+8з11740 0.0 101810
07:00+9зсз227429 0.0 101819
10:00+13сз346269 0.0 1017449
13:00+13ссв5673100 0.1 1018840
16:00+10с787496 0.1 1019815
19:00+4ссв61187100 0.0 1022670
22:00+4ссв511735 0.0 1023435